Location: Waco, TX
(31.5481°N, 97.1672°W)
Time: 21:59:51
(UTC-05:00)

ISS - Visible Passes

Search period start: 21 April 2018 00:00
Search period end: 01 May 2018 00:00
Orbit: 403 x 406 km, 51.6° (Epoch: 22 April)

Date Brightness Start Highest point End Pass type
(mag) Time Alt. Az. Time Alt. Az. Time Alt. Az.
27 Apr -1.5 06:17:28 10° S 06:20:01 21° SE 06:22:34 10° ENE visible
29 Apr -3.6 06:08:27 10° SW 06:11:40 68° SE 06:14:55 10° NE visible
30 Apr -2.2 05:18:13 21° SSE 05:19:27 28° SE 05:22:17 10° ENE visible
